Regional Weather Roundup
Issued by NWS

Home | Current Version | Previous Version | Graphics & Text | Print | Product List | Glossary On
Versions: 1 2 3 4 5 6 7 8 9 10 11 12 13 14 15 16 17 18 19 20 21 22 23 24 25 26 27 28 29 30 31 32 33 34 35 36 37 38 39 40 41 42 43 44 45 46 47 48 49 50
000
ASUS43 KOAX 021302
RWRNE

WEATHER ROUNDUP FOR NEBRASKA
NATIONAL WEATHER SERVICE OMAHA NE
700 AM CST FRI DEC 02 2016

NOTES: SATELLITE DATA IS BEING USED TO AUGMENT CLOUD COVER ABOVE
       12000 FEET.
       "FAIR" INDICATES FEW OR NO CLOUDS BELOW 12,000 FEET WITH NO
       SIGNIFICANT WEATHER AND/OR OBSTRUCTIONS TO VISIBILITY.

  * THESE STATIONS DO NOT REPORT WEATHER SUCH AS RAIN...SNOW OR FOG.

NEZ001>004-019>022-054>056-021400-
NEBRASKA PANHANDLE

CITY           SKY/WX    TMP DP  RH WIND       PRES   REMARKS
SCOTTSBLUFF    CLEAR     18  13  80 N8        30.15S WCI   8
ALLIANCE       CLEAR     11   9  92 W3        30.13R
CHADRON        CLOUDY    24  20  84 SW10      30.16R WCI  14
SIDNEY         CLEAR     15  11  83 NW10      30.13R WCI   2
$$

NEZ057>060-069>072-079>082-021400-
SOUTHWEST NEBRASKA

CITY           SKY/WX    TMP DP  RH WIND       PRES   REMARKS
NORTH PLATTE   CLEAR     14  10  84 N3        30.17R
IMPERIAL       PTCLDY    20  13  74 NW8       30.16R WCI  10
LEXINGTON      CLEAR     17  15  88 W7        30.18R WCI   8
MCCOOK         CLEAR     18  12  77 W12       30.17R WCI   5
OGALLALA       CLEAR     15  12  87 SW5       30.16S WCI   8
$$

NEZ005>010-023>029-035>040-094-021400-
NORTH CENTRAL NEBRASKA

CITY           SKY/WX    TMP DP  RH WIND       PRES   REMARKS
VALENTINE      CLOUDY    23  19  85 W3        30.17R
AINSWORTH      CLEAR     21  20  97 CALM      30.17R
BROKEN BOW     CLOUDY    26  23  88 CALM      30.16R
O`NEILL        CLEAR     26  25  96 NW6       30.18S WCI  19
ORD            CLEAR     19  17  92 NW5       30.19R WCI  12
THEDFORD       CLEAR     23  22  94 CALM      30.16S
$$

NEZ041-046>049-061>064-073>077-083>087-021400-
SOUTH CENTRAL NEBRASKA

CITY           SKY/WX    TMP DP  RH WIND       PRES   REMARKS
GRAND ISLAND   MOCLDY    21  19  92 N6        30.18R WCI  13
AURORA         CLEAR     19  17  95 N3        30.19R
HASTINGS       CLEAR     19  16  88 NE3       30.19R
HEBRON         CLEAR     19  18  93 CALM      30.21R
HOLDREGE       CLEAR     17  15  91 NW3       30.17S
KEARNEY *      CLEAR     19  16  86 NW3       30.18R
YORK           CLEAR     21  19  93 N3        30.20R
$$

NEZ011>018-030>034-042>045-021400-
NORTHEAST NEBRASKA

CITY           SKY/WX    TMP DP  RH WIND       PRES   REMARKS
NORFOLK        CLEAR     19  17  92 W5        30.20R WCI  12
ALBION         CLOUDY    23  20  90 CALM      30.20R
BLAIR          CLEAR     28  26  94 CALM      30.20R
FREMONT        CLEAR     25  24  98 W5        30.21R WCI  19
TEKAMAH        CLEAR     29  26  89 NW6       30.21R WCI  23
WAYNE          PTCLDY    27  26  96 NW3       30.19R
$$

NEZ050>053-065>068-078-088>093-021400-
SOUTHEAST NEBRASKA

CITY           SKY/WX    TMP DP  RH WIND       PRES   REMARKS
LINCOLN        CLEAR     22  20  92 CALM      30.23R
OMAHA EPPLEY   PTCLDY    30  25  81 NW3       30.22R
BEATRICE       CLEAR     18  15  88 CALM      30.21R
FALLS CITY     CLEAR     21  19  92 W5        30.23R WCI  15
NEBRASKA CITY  CLEAR     28  24  83 NW8       30.21R WCI  20
PLATTSMOUTH    CLEAR     27  24  87 W6        30.22R WCI  20
$$

NEZ044-045-051>053-067-021400-
OMAHA AREA

CITY           SKY/WX    TMP DP  RH WIND       PRES   REMARKS
OMAHA EPPLEY   PTCLDY    30  25  81 NW3       30.22R
BLAIR          CLEAR     28  26  94 CALM      30.20R
FREMONT        CLEAR     25  24  98 W5        30.21R WCI  19
MILLARD        CLEAR     30  27  90 CALM      30.22R
OFFUTT AFB     CLEAR     28  27  99 W5        30.22R WCI  22
PLATTSMOUTH    CLEAR     27  24  87 W6        30.22R WCI  20
WAHOO          FAIR      26  24  91 NW5       30.22R WCI  20
$$




USA.gov is the U.S. government's official web portal to all federal, state and local government web resources and services.